Location: ???????
(55.4362°N, 38.1183°E)
Time: 12:26:02
(UTC+00:00)

Nauka - Pass Details

Date: 28 September 2021
Orbit: 417 x 423 km, 51.6° (Epoch: 20 October)

Event Time Altitude Azimuth Distance (km) Brightness Sun altitude
Rises 15:52:52 0° 262° (W) 2,364 ? -6.8°
Reaches altitude 10° 15:55:00 10° 256° (WSW) 1,500 ? -7.1°
Maximum altitude 15:58:13 43° 184° (S) 602 ? -7.6°
Enters shadow 16:01:23 10° 111° (ESE) 1,482 ? -8.0°
